Location: G�ppingen
(48.7089°N, 9.6563°E)
Time: 00:07:29
(UTC+01:00)

M-CUBED/EXP-1 PRIME - Visible Passes

Search period start: 20 March 2019 00:00
Search period end: 30 March 2019 00:00
Orbit: 430 x 671 km, 101.7° (Epoch: 18 March)

Date Brightness Start Highest point End Pass type
(mag) Time Alt. Az. Time Alt. Az. Time Alt. Az.
20 Mar ? 19:11:02 10° ENE 19:13:33 15° E 19:16:06 10° SE visible
20 Mar ? 20:43:50 10° NNE 20:48:15 77° WNW 20:52:49 10° SSW visible
20 Mar ? 22:19:49 10° NNW 22:21:53 13° NW 22:23:59 10° W visible
21 Mar ? 19:07:21 10° ENE 19:09:24 13° E 19:11:29 10° ESE visible
21 Mar ? 20:39:43 10° NNE 20:44:11 87° WNW 20:48:46 10° SSW visible
21 Mar ? 22:15:25 10° NNW 22:17:53 15° NW 22:20:23 10° W visible
22 Mar ? 19:03:51 10° ENE 19:05:14 11° E 19:06:38 10° ESE visible
22 Mar ? 20:35:37 10° NNE 20:40:06 82° ESE 20:44:43 10° SSW visible
22 Mar ? 22:11:05 10° NNW 22:13:51 17° NW 22:16:42 10° W visible
23 Mar ? 20:31:31 10° NNE 20:36:01 72° ESE 20:40:36 10° SSW visible
23 Mar ? 22:06:46 10° N 22:09:51 19° NW 22:12:58 10° W visible
24 Mar ? 05:47:22 10° E 05:50:03 19° NE 05:52:53 10° N visible
24 Mar ? 20:27:26 10° NNE 20:31:56 63° ESE 20:36:30 10° S visible
24 Mar ? 22:02:30 10° N 22:05:49 21° NW 22:09:11 10° WSW visible
25 Mar ? 20:23:22 10° NNE 20:27:50 55° ESE 20:32:21 10° S visible
25 Mar ? 21:58:15 10° N 22:01:47 23° WNW 22:05:23 10° WSW visible
26 Mar ? 05:39:40 10° E 05:41:59 16° NE 05:44:23 10° NNE visible
26 Mar ? 20:19:19 10° NNE 20:23:44 48° ESE 20:28:11 10° S visible
26 Mar ? 21:54:02 10° N 21:57:45 26° WNW 22:01:32 10° WSW visible
27 Mar ? 05:35:52 10° E 05:37:57 14° NE 05:40:05 10° NNE visible
27 Mar ? 20:15:16 10° NNE 20:19:37 42° ESE 20:24:00 10° S visible
27 Mar ? 21:49:50 10° N 21:53:43 29° WNW 21:57:40 10° WSW visible
28 Mar ? 05:32:09 10° ENE 05:33:55 13° NE 05:35:45 10° NNE visible
28 Mar ? 20:11:14 10° NE 20:15:30 37° ESE 20:19:47 10° S visible
28 Mar ? 21:45:38 10° N 21:49:40 32° WNW 21:53:46 10° WSW visible
29 Mar ? 05:28:31 10° ENE 05:29:54 12° NE 05:31:18 10° NNE visible
29 Mar ? 20:07:13 10° NE 20:11:23 33° ESE 20:15:32 10° SSE visible
29 Mar ? 21:41:27 10° N 21:45:37 36° WNW 21:49:50 10° SW visible
